Regional Weather Roundup
Issued by NWS

Home | Current Version | Previous Version | Text Only | Print | Product List | Glossary On
Versions: 1 2 3 4 5 6 7 8 9 10 11 12 13 14 15 16 17 18 19 20 21 22 23 24 25 26 27 28 29 30 31 32 33 34 35 36 37 38 39 40 41 42 43 44 45 46 47 48 49 50
000
ASUS43 KBIS 172210
RWRND

NORTH DAKOTA REGIONAL WEATHER ROUNDUP
NATIONAL WEATHER SERVICE BISMARCK ND
500 PM CDT TUE OCT 17 2017

NOTE: "FAIR" INDICATES FEW OR NO CLOUDS BELOW 12,000 FEET WITH NO
SIGNIFICANT WEATHER AND/OR OBSTRUCTIONS TO VISIBILITY.


NDZ001>003-009>011-017-172300-
NORTHWEST NORTH DAKOTA

CITY           SKY/WX    TMP DP  RH WIND       PRES   REMARKS
WILLISTON      SUNNY     77  26  15 SW18G31   29.63F
MINOT          SUNNY     76  29  17 SW20G25   29.64F
MINOT AFB      SUNNY     75  30  19 W17G24    29.61F
$$

NDZ018>021-031>035-040>046-172300-
SOUTHWEST NORTH DAKOTA

CITY           SKY/WX    TMP DP  RH WIND       PRES   REMARKS
BISMARCK       SUNNY     80  25  13 SW14G23   29.74F
DICKINSON      SUNNY     75  22  13 W25G31    29.74F
GARRISON         N/A     75  33  21 SW16      29.69F
HETTINGER ARPT SUNNY     76  20  12 SW20      29.82F
$$

NDZ004>008-012>016-024-026-027-054-172300-
NORTHEAST NORTH DAKOTA

CITY           SKY/WX    TMP DP  RH WIND       PRES   REMARKS
GRAND FORKS    MOSUNNY   79  29  16 SW15G24   29.68F
GRND FRKS AFB  SUNNY     77  30  18 SW16      29.68F
DEVILS LAKE    SUNNY     71  35  26 SW20G25   29.69F
$$

NDZ022-023-025-028>030-036>039-047>053-172300-
SOUTHEAST NORTH DAKOTA

CITY           SKY/WX    TMP DP  RH WIND       PRES   REMARKS
FARGO          SUNNY     75  40  28 SW15      29.76F
JAMESTOWN      SUNNY     76  27  16 SW15G25   29.74F
$$





USA.gov is the U.S. government's official web portal to all federal, state and local government web resources and services.